Voltar ao catálogo

QIANFAN-170

AtivoComunicaçõesPO
NORAD 69387·PAYLOAD·🇨🇳 China

Lançado Jun 4, 2026 de Taiyuan Satellite Launch Center

Loading…

Próximas Passagens (próximas 24 horas)

TLE

AtualizadoSource: Space-Track

Época: Sep 14, 2026, 13:10 UTC

1 69387U 26124F   26257.54881774  .00000134  00000-0  18913-3 0  9997
2 69387  89.0077 352.5885 0001846  96.5817 263.5544 13.51025001 14122

Acompanhe QIANFAN-170 em tempo real com AllMySat

Download on the App Store